Theta_e
318 318 317 316 315 316 316 316 316 316 316 317 316 312 309 308 306 305 306 306 308 309 306 306 306 306 307 306 307 307 307 310 312 313 312 313 313 314 318 316 314 313 311 311 311 313 312 313 313 313 315 316 317 318 314 319 326 325 332 332 320 320 320 317 320 320 321 318 316 315 316 318 316 315 314 312 316 315 317 319 320 328 328 328 329 325 327 332
318 318 316 315 315 316 316 316 316 316 316 316 316 313 310 307 305 305 306 306 308 309 307 306 306 306 307 307 307 307 308 311 314 315 313 313 316 315 317 316 313 312 311 311 311 312 313 313 311 313 318 317 316 318 316 317 321 326 335 330 322 328 321 314 318 318 318 316 316 316 316 317 316 315 314 314 315 315 318 317 322 339 334 327 330 329 331 331
318 318 316 314 315 315 315 315 316 316 315 316 316 314 310 307 306 305 305 306 308 308 306 306 306 306 307 307 307 308 311 313 315 317 312 313 317 315 314 313 312 312 312 312 313 312 314 314 310 314 318 316 316 318 321 319 317 327 335 329 326 331 321 313 316 317 318 316 316 315 314 315 315 315 314 315 316 315 320 319 320 337 339 330 330 329 330 330
318 318 316 314 315 315 314 314 316 315 315 315 315 314 309 307 307 306 306 306 306 307 306 306 306 307 307 307 308 310 314 313 315 318 313 312 316 314 312 312 312 312 312 312 315 314 314 313 310 314 317 315 317 318 320 321 315 320 328 328 325 322 317 315 315 317 317 314 315 316 315 315 314 314 314 316 316 315 318 320 319 328 338 331 329 328 330 330
317 317 317 315 314 315 314 314 315 315 315 315 315 314 310 308 307 307 306 306 306 306 306 306 306 307 307 307 308 311 313 310 313 318 316 315 315 313 312 312 312 313 312 313 314 314 313 312 310 315 318 316 318 317 317 318 317 318 318 319 320 316 315 316 316 317 314 312 316 316 315 315 314 314 315 316 316 319 317 317 318 321 333 330 328 328 328 329
318 317 317 315 314 314 314 314 314 314 315 315 314 314 312 309 307 307 306 306 306 306 306 306 306 306 307 307 308 312 313 309 313 318 317 315 314 312 312 312 313 313 312 313 313 312 313 313 312 315 317 315 317 317 316 314 316 319 315 315 317 316 316 316 316 317 314 315 316 316 315 314 316 315 316 316 316 321 318 318 317 314 325 328 327 327 328 329
318 317 316 316 314 314 313 314 314 314 314 314 314 313 312 310 307 307 306 306 306 306 305 305 306 306 308 307 308 314 317 314 314 317 314 312 312 312 313 313 313 313 313 312 312 314 315 314 314 317 317 316 315 315 316 315 318 323 318 315 316 315 316 315 315 316 317 318 316 315 315 315 318 316 314 315 318 321 316 315 311 310 321 327 326 327 327 327
317 317 316 316 315 314 313 314 313 313 314 314 313 313 312 310 307 307 307 306 306 306 305 305 306 306 308 309 311 316 316 315 315 315 312 311 313 313 313 314 313 313 312 312 313 315 315 314 314 315 316 316 315 315 315 314 317 322 318 315 316 315 315 315 316 318 318 318 315 315 316 316 317 315 314 317 320 320 316 314 312 313 322 327 327 327 325 325
317 317 316 316 316 314 313 313 313 313 313 313 312 311 312 310 307 306 306 306 306 306 306 306 306 306 309 311 313 314 313 314 316 314 312 311 312 313 313 313 313 312 313 313 313 313 313 315 315 314 315 314 315 315 315 314 315 319 318 316 316 314 314 314 317 318 318 317 315 315 316 316 315 313 316 320 320 318 318 320 318 320 327 327 327 326 323 323
317 317 317 316 316 314 313 313 312 313 313 312 312 311 311 310 308 307 306 306 306 305 306 306 307 307 309 312 312 312 313 316 316 313 311 311 312 313 314 314 313 313 313 313 313 313 313 315 314 313 315 315 315 315 314 314 314 316 317 316 316 315 314 315 317 316 317 317 316 318 316 315 315 314 317 320 317 316 321 323 319 322 329 324 324 325 321 322
317 316 316 316 315 315 313 313 312 312 312 312 311 310 310 310 308 307 306 306 306 305 305 306 308 308 309 311 311 311 315 316 315 313 311 312 313 313 314 314 314 314 315 314 313 314 315 314 312 312 314 314 316 316 314 314 314 315 317 316 315 316 314 315 316 315 316 315 316 319 316 315 315 315 319 317 314 316 322 325 320 323 325 320 322 322 319 319
316 316 316 315 315 315 314 314 313 312 311 311 310 310 309 309 308 307 307 306 306 305 305 306 307 310 309 310 311 312 315 316 314 312 311 312 313 314 315 314 314 315 315 315 314 315 315 314 313 314 314 314 316 316 315 315 314 315 318 318 315 317 316 314 315 315 316 315 317 317 313 315 316 317 320 315 314 316 319 323 321 321 321 318 320 320 317 316
316 315 315 315 315 315 314 314 313 313 312 311 310 310 309 309 309 307 306 306 306 305 305 306 307 311 311 309 312 313 314 315 313 312 312 313 313 313 314 313 313 315 316 315 314 314 315 315 315 316 315 317 316 313 314 314 315 315 317 319 318 316 315 314 314 315 316 315 317 313 312 322 323 318 317 315 315 315 315 319 318 318 318 317 317 319 319 315
316 316 315 315 315 314 314 313 313 312 312 311 310 309 309 308 309 308 307 306 306 305 306 307 307 311 311 309 313 315 315 314 312 312 312 313 313 313 313 314 314 314 315 315 314 314 316 315 314 315 314 317 315 312 315 315 316 316 313 319 321 314 314 317 316 316 315 314 316 311 314 326 326 319 316 315 316 316 317 319 316 317 316 316 315 316 318 316
316 316 315 315 315 314 314 313 313 312 312 311 310 309 308 308 309 308 306 307 307 306 306 308 310 310 309 310 313 315 314 313 312 312 313 314 313 313 313 314 314 314 314 314 315 315 315 315 315 317 314 314 314 315 319 318 319 320 315 319 319 312 316 321 317 316 316 314 315 312 315 323 322 319 316 314 316 316 320 320 317 318 317 317 316 313 315 314
316 316 315 315 314 314 313 312 312 312 311 311 310 309 308 308 308 307 307 307 307 307 308 310 312 310 307 310 313 314 313 312 313 313 314 314 313 314 313 314 313 314 315 314 315 315 315 316 316 316 316 315 315 318 322 322 323 324 321 320 320 315 317 320 317 317 318 316 315 313 316 322 320 319 317 315 316 317 319 321 319 319 318 317 316 314 314 312
316 315 315 314 314 314 313 312 312 311 311 310 310 308 307 308 308 307 307 308 309 310 311 312 313 310 307 309 314 315 314 312 313 314 314 314 314 314 313 314 313 313 314 314 315 314 314 317 315 314 318 318 318 320 318 317 318 321 321 320 322 321 319 319 319 318 317 316 317 315 316 322 322 322 322 319 317 317 319 321 321 320 317 316 315 314 314 314
316 315 315 314 314 313 312 312 311 311 311 310 308 307 308 310 310 310 310 310 311 311 310 311 310 310 309 310 314 316 314 313 313 314 314 314 314 314 313 314 312 312 314 314 314 314 315 318 318 318 319 317 317 318 318 318 318 319 318 317 318 320 319 320 320 316 316 316 317 317 317 321 322 320 321 318 315 317 320 319 319 319 317 316 314 314 314 315
316 315 315 315 313 313 312 312 311 311 311 309 308 310 311 313 312 311 312 311 311 307 308 310 308 311 312 311 314 315 313 313 313 313 314 314 313 313 314 312 313 314 314 316 314 315 321 321 317 319 318 317 316 318 324 326 322 320 323 325 324 322 317 318 319 315 315 317 318 319 319 321 320 318 320 318 313 314 318 318 316 315 315 314 313 313 313 315
316 316 315 314 313 312 312 311 311 311 310 308 310 311 311 312 312 313 313 314 313 309 309 311 309 312 314 312 314 314 313 313 313 313 313 313 313 313 312 312 318 318 315 320 316 315 326 324 316 318 317 317 319 321 323 321 320 320 323 328 327 324 319 316 317 315 314 315 316 318 318 320 320 317 318 315 311 312 315 316 315 314 313 313 313 313 313 315
316 316 315 314 313 312 311 311 310 310 309 309 311 312 312 311 311 313 312 312 311 308 310 312 310 313 315 313 313 312 313 314 312 313 313 313 313 312 312 313 318 316 315 322 319 317 325 322 318 321 319 317 318 320 318 315 318 320 321 325 323 322 321 316 316 317 314 313 316 317 317 317 318 316 315 312 311 313 314 314 314 314 313 313 314 314 314 313
316 316 315 314 312 311 311 310 309 309 309 310 311 315 317 313 310 311 310 309 307 306 309 311 311 315 313 312 313 312 315 316 313 314 314 312 313 312 313 315 316 316 314 317 317 318 322 320 324 326 318 316 316 316 318 320 325 326 323 323 320 320 319 316 317 319 315 313 318 322 321 318 316 315 314 312 313 312 312 312 314 314 314 314 314 314 314 313
316 316 314 314 312 311 310 309 309 308 309 311 310 313 317 313 311 311 309 309 308 308 311 312 315 318 314 312 313 312 314 315 315 316 313 312 313 313 314 314 315 317 314 315 318 317 317 318 323 321 313 314 316 316 319 320 323 328 327 321 319 319 319 318 317 318 316 313 317 321 321 319 317 319 320 317 314 313 313 313 313 313 314 314 314 314 314 315
316 315 314 313 311 310 310 309 309 308 309 310 310 313 316 313 313 312 311 311 310 310 312 312 316 319 316 313 313 313 314 314 315 315 312 313 313 312 313 313 315 317 314 316 317 317 317 316 315 315 314 317 316 315 320 319 315 323 333 332 325 321 320 320 317 316 317 315 318 319 317 325 330 330 333 327 316 315 317 315 316 315 314 314 314 314 315 316
315 314 314 312 310 310 309 308 309 309 310 309 310 314 315 314 312 311 312 312 310 311 309 309 313 316 315 313 313 315 314 314 315 314 311 312 312 312 312 312 315 317 315 315 315 316 316 314 312 313 318 322 318 316 322 323 315 314 324 330 328 327 324 322 320 320 319 315 317 315 313 332 342 332 330 328 319 317 316 314 317 317 315 317 316 314 315 317
314 314 313 311 310 310 308 309 309 308 310 309 310 314 315 314 312 311 314 314 313 312 308 308 312 313 313 313 315 315 314 314 313 312 312 311 311 312 311 311 313 315 314 314 315 316 315 314 316 318 322 323 321 319 318 322 320 311 316 321 325 332 328 324 321 317 317 314 314 316 314 321 329 324 322 322 316 316 315 315 319 315 313 320 323 322 321 318
314 314 313 310 310 310 308 309 309 308 311 311 310 313 313 313 312 311 315 316 314 312 308 308 309 311 313 313 314 314 314 315 312 311 312 311 311 310 312 312 312 313 314 314 317 315 314 317 318 322 330 325 319 318 315 321 320 310 317 325 328 332 329 329 327 319 320 317 319 328 324 316 321 321 321 318 316 320 321 320 324 317 312 319 325 327 328 327
314 313 312 310 310 310 309 309 309 308 311 311 310 313 314 314 311 311 315 314 312 310 309 308 308 311 314 312 312 313 314 315 314 313 310 310 311 311 313 314 313 315 314 314 317 314 315 320 319 322 330 323 318 320 320 327 326 315 320 326 327 331 333 337 336 329 324 315 320 331 321 314 325 330 325 319 316 321 325 323 322 318 314 320 328 331 331 332
313 313 311 310 310 310 310 310 309 308 311 312 311 312 314 312 309 311 313 310 310 310 308 309 309 312 314 311 312 314 313 314 315 314 310 310 310 310 313 313 316 320 315 315 321 317 314 316 318 321 322 319 319 320 322 331 327 319 320 324 325 329 332 334 333 326 317 313 323 329 317 313 322 330 328 318 315 320 324 323 320 320 320 325 337 341 332 329
313 312 310 310 310 309 311 311 308 308 311 312 313 312 313 311 308 310 309 308 313 312 307 308 310 313 315 312 311 313 315 315 314 313 312 313 312 310 312 311 317 326 321 321 325 320 314 311 314 318 316 318 319 318 320 325 320 317 324 327 324 328 333 336 336 324 310 317 330 328 320 314 315 327 330 319 319 323 321 323 324 326 331 332 338 340 329 327
312 311 310 309 309 309 312 311 309 310 312 313 315 313 311 314 313 309 308 311 316 313 308 309 311 313 314 312 312 313 315 315 313 312 313 313 313 313 312 311 316 324 322 323 322 318 317 314 315 317 315 318 321 319 319 323 322 321 329 327 316 322 330 334 336 322 311 323 330 324 320 316 313 325 328 323 324 321 318 322 324 330 343 344 339 335 328 326
311 311 310 308 308 309 312 312 310 311 313 313 314 312 309 312 312 309 309 311 313 313 312 311 311 313 313 312 313 314 317 316 312 312 314 315 315 314 315 315 317 318 317 321 321 316 318 319 316 315 314 316 322 322 320 325 329 322 322 321 314 319 322 325 332 324 318 324 320 319 320 316 317 322 322 325 326 324 321 321 320 325 340 346 338 334 331 326
311 311 309 308 309 310 312 313 311 312 312 312 313 314 313 312 310 310 311 310 313 314 313 312 311 313 313 312 314 315 317 317 313 312 313 315 315 314 316 317 317 319 318 321 322 317 320 324 317 314 315 315 318 322 318 321 325 318 316 318 318 321 319 321 327 321 320 324 317 316 318 316 320 320 318 322 319 321 322 319 319 322 330 338 334 333 332 326
311 310 309 309 309 311 313 313 312 312 311 311 312 313 314 312 310 310 310 311 315 312 311 313 313 313 312 312 314 314 315 314 313 313 313 314 315 314 316 314 314 323 324 319 320 320 322 325 320 316 317 316 315 318 322 324 321 318 318 315 316 325 326 325 327 323 325 327 318 314 317 323 324 314 314 320 318 319 321 320 320 319 324 332 332 332 332 328
312 310 309 310 310 311 313 313 313 312 311 312 311 309 311 310 310 310 309 312 316 312 311 313 313 313 313 311 312 313 316 316 313 313 315 315 314 314 315 311 313 323 323 316 316 318 317 319 322 319 316 316 316 317 322 323 318 318 316 312 312 321 327 323 321 324 325 321 318 317 321 327 322 313 315 318 318 320 320 320 319 318 324 331 337 340 335 332
312 310 310 311 311 311 312 313 312 311 312 312 310 309 310 309 310 310 308 311 315 313 312 313 312 314 313 312 313 312 315 318 315 314 315 314 313 313 314 312 314 317 316 317 319 317 315 315 318 318 316 315 317 317 319 319 317 316 315 318 320 320 328 323 313 315 316 313 318 318 320 323 316 315 320 317 315 317 318 319 318 319 323 326 335 343 340 336
312 311 311 311 311 311 312 313 312 311 313 313 309 309 309 308 311 312 309 311 313 312 313 313 312 314 313 312 314 314 314 317 315 314 315 314 314 314 313 313 313 313 314 318 319 318 321 320 316 317 317 313 313 315 319 318 318 319 319 323 320 315 323 325 316 319 319 317 321 319 317 319 315 317 321 316 313 315 315 318 318 320 323 323 327 333 338 340
312 311 311 311 311 311 311 312 311 312 315 314 311 311 310 308 311 313 312 312 312 312 314 314 313 314 313 312 313 313 314 315 314 315 315 313 315 315 312 312 313 313 313 315 315 317 323 322 316 314 317 316 315 317 319 316 314 320 321 319 318 319 322 320 317 321 320 318 324 323 317 315 314 317 319 314 314 316 316 318 320 319 320 322 321 322 329 333
312 312 313 312 310 311 312 312 312 313 315 314 312 312 311 309 310 316 316 311 312 313 313 316 316 313 312 312 312 312 313 314 313 315 315 313 315 315 311 311 314 313 312 313 315 316 320 322 318 313 314 316 316 317 321 319 314 316 316 313 318 326 325 320 318 319 318 316 320 323 321 318 317 318 318 315 317 319 317 319 321 319 318 318 315 318 324 325
311 312 314 312 311 311 312 311 313 314 314 313 312 311 312 310 309 314 317 312 312 314 314 318 317 313 313 313 312 312 313 314 313 313 314 313 313 313 311 311 313 314 312 312 315 316 317 319 318 314 313 315 317 319 321 321 318 318 318 317 318 319 319 320 319 319 322 322 322 321 319 321 321 318 317 316 316 317 318 319 320 321 320 317 316 320 326 328
310 309 312 313 311 312 312 312 313 314 313 312 311 310 312 312 309 311 315 315 313 314 317 320 317 315 316 314 313 313 314 315 314 313 314 313 312 312 313 312 313 314 313 311 314 318 316 316 320 319 317 319 322 320 317 318 318 317 318 319 319 318 318 319 318 317 318 320 323 320 316 319 320 316 316 318 319 321 323 320 321 326 327 325 324 328 330 334
309 308 311 312 312 312 312 313 313 313 314 313 311 311 313 316 315 311 312 316 316 314 316 317 315 315 315 313 314 315 315 315 315 314 314 313 313 313 314 315 314 313 313 312 313 317 319 321 325 323 320 321 320 315 313 316 317 315 316 319 318 318 320 320 322 322 317 315 318 319 319 318 314 313 317 319 320 324 326 324 324 331 334 335 340 344 342 342
307 308 310 310 312 312 312 313 313 312 314 312 311 312 314 317 320 317 314 316 317 316 315 315 314 313 314 316 316 315 314 314 314 314 315 313 313 314 315 316 315 312 312 313 313 315 318 322 324 322 322 323 321 317 315 315 315 315 318 319 318 319 322 326 330 327 321 319 318 317 320 316 312 318 323 321 320 321 322 323 323 327 336 345 353 359 355 349
307 308 309 309 311 312 311 311 312 312 312 311 309 311 313 316 320 320 317 317 319 318 315 315 315 312 315 320 317 313 313 313 314 314 315 315 314 315 317 314 313 313 312 313 314 314 315 318 321 322 323 323 322 321 319 317 315 318 322 320 318 321 322 321 322 319 318 323 321 318 319 315 314 322 324 323 325 324 322 323 323 323 328 336 345 350 348 348
309 309 309 309 310 311 312 312 311 310 311 311 311 311 312 314 316 318 320 321 322 322 317 316 318 316 317 318 314 313 314 315 317 315 314 317 316 315 317 316 313 312 312 314 314 312 316 320 320 320 319 319 319 319 319 319 316 318 324 322 318 319 319 317 319 318 318 322 320 317 317 315 315 317 317 320 323 322 324 326 323 322 324 328 332 338 340 341
309 309 308 308 308 308 309 311 313 311 310 310 311 311 311 312 314 316 318 319 320 321 321 320 319 316 316 316 314 314 314 315 318 317 314 317 318 317 318 318 316 313 315 318 315 316 324 322 315 315 316 314 315 318 321 322 319 317 321 321 317 317 317 318 322 321 319 319 317 316 315 315 315 315 315 319 320 319 322 322 320 321 325 329 330 332 333 330
308 309 308 308 308 307 306 308 311 311 311 310 311 311 311 312 313 314 315 316 317 319 322 322 319 315 316 316 315 315 314 314 317 318 315 315 319 319 316 317 316 315 318 318 314 319 326 320 313 314 316 312 314 322 323 321 320 319 319 319 318 316 316 319 319 318 318 319 317 315 315 314 314 313 315 317 317 317 317 316 316 317 318 322 322 322 324 323
306 307 308 309 310 309 308 308 308 310 312 310 310 311 311 311 312 312 315 316 316 317 319 320 321 321 319 316 315 316 315 313 316 318 316 316 320 318 315 315 314 316 318 314 313 319 322 317 316 315 314 314 315 320 322 319 318 318 318 318 318 316 316 317 317 316 317 318 315 315 317 317 314 313 315 316 314 314 314 312 312 312 313 315 316 317 319 321
305 306 307 309 310 308 308 309 308 309 311 310 310 312 311 311 311 312 315 317 317 317 318 319 322 324 321 318 316 317 316 314 315 317 317 318 320 319 318 317 315 316 318 314 313 317 318 320 321 315 313 315 316 318 320 319 318 317 317 317 317 316 316 315 315 315 315 316 315 316 318 317 313 312 314 316 315 313 313 312 312 313 314 315 317 319 320 322
304 305 306 308 309 309 308 308 308 309 310 310 311 312 311 311 311 311 315 316 316 317 318 318 322 324 322 320 317 317 317 315 314 316 317 317 319 320 320 321 319 317 317 315 312 312 315 321 321 316 314 315 315 317 318 316 316 317 317 316 315 316 316 314 314 315 314 315 315 315 317 315 312 313 315 314 314 314 314 314 315 314 316 318 319 319 319 321
302 303 304 305 307 309 309 308 307 308 309 310 310 311 311 312 311 310 313 314 314 317 318 320 322 323 321 319 319 320 320 319 318 318 318 317 319 320 319 321 321 319 317 316 315 314 314 318 317 315 317 317 316 317 316 313 313 315 317 317 314 315 316 315 314 315 315 315 315 316 316 314 312 315 316 314 314 315 315 314 314 315 316 318 317 317 318 318
300 301 303 304 305 307 309 308 307 308 309 309 309 310 311 311 311 310 312 313 315 317 318 319 321 322 321 320 322 322 321 321 321 319 318 320 322 323 323 320 317 317 318 317 318 319 318 318 319 318 318 319 318 316 315 315 315 316 318 317 314 313 313 314 314 314 315 315 316 316 315 313 313 315 315 314 315 316 315 314 315 316 318 318 317 318 318 317
Wind_Speed
18 17 16 14 14 13 12 11 11 10 9 8 8 10 12 13 14 15 15 15 13 12 12 13 13 12 12 10 8 7 6 7 7 8 8 7 9 9 6 7 7 6 7 6 7 6 3 1 2 0 2 2 1 0 1 1 2 4 3 3 1 3 4 4 6 7 5 6 7 6 5 8 5 2 1 2 6 4 4 5 3 5 6 4 1 11 28 30
19 18 17 16 14 14 13 12 11 10 9 7 7 9 12 13 14 14 14 13 12 12 12 12 12 12 11 9 8 5 5 7 6 6 10 9 7 8 8 7 7 7 6 6 7 6 4 1 1 3 4 1 1 1 1 1 3 3 3 3 2 5 4 4 6 6 4 7 9 6 5 7 7 5 2 3 1 3 5 3 4 5 6 6 8 19 28 27
20 18 17 16 15 14 14 12 11 10 9 8 7 8 11 12 13 14 13 12 11 11 12 12 12 11 10 9 6 4 5 5 2 5 11 12 8 8 8 8 8 7 6 5 7 6 5 2 1 3 4 1 1 2 2 1 1 3 4 2 4 6 4 3 4 4 5 7 11 6 5 4 5 5 3 4 5 3 4 3 1 0 2 3 7 16 22 23
20 19 18 16 15 14 13 12 11 10 9 8 7 7 10 12 12 13 12 11 11 11 12 12 12 11 9 8 5 6 6 3 2 6 10 13 10 8 9 9 7 6 6 6 6 5 4 1 2 3 4 1 3 2 2 1 1 2 4 3 6 3 2 2 1 2 4 6 11 8 5 3 4 3 3 7 6 2 6 6 7 8 9 9 7 12 19 19
21 19 17 16 16 14 13 12 11 10 9 9 7 7 10 11 12 12 11 11 10 11 11 11 11 10 9 7 5 7 5 2 3 5 9 13 11 10 10 9 6 6 7 7 6 5 3 2 4 4 4 1 1 3 2 2 2 3 1 4 4 3 2 3 3 1 1 5 7 8 7 5 3 2 4 10 7 5 7 7 10 10 13 15 13 15 16 16
22 20 18 16 16 15 13 12 11 11 10 8 7 7 9 11 13 13 11 10 10 10 10 11 10 9 8 6 6 6 5 2 2 4 10 13 12 11 9 7 6 6 7 7 6 3 2 3 5 3 2 2 2 3 3 2 3 3 2 1 1 2 3 2 3 2 4 8 7 7 5 4 5 2 4 9 8 7 7 8 10 9 15 20 18 17 14 14
22 21 19 17 15 15 14 13 12 11 10 8 7 8 9 11 13 13 11 10 9 9 10 10 9 9 8 7 6 3 2 3 2 6 11 12 12 10 8 7 6 7 7 7 5 3 3 4 4 4 4 2 3 3 2 1 5 5 2 1 1 1 3 1 2 2 6 8 5 5 5 5 6 3 2 5 8 8 6 3 5 9 16 18 15 14 15 17
23 21 20 17 14 14 14 14 12 11 9 8 8 9 9 10 12 12 11 10 9 9 9 9 9 9 8 8 6 3 1 4 4 10 12 11 11 8 8 7 6 7 7 7 6 5 4 4 4 4 4 2 4 3 2 4 6 4 4 2 1 2 2 2 3 5 6 5 2 6 5 3 5 3 2 6 9 7 4 3 5 11 14 13 13 13 14 15
23 21 20 17 14 13 14 14 12 11 9 7 8 10 9 9 12 11 11 10 8 9 8 9 9 9 10 7 5 3 3 4 6 12 12 11 9 8 9 7 7 8 7 7 5 5 4 4 5 4 4 3 4 4 2 4 1 2 4 3 2 2 2 2 4 5 4 2 2 6 3 3 2 0 2 7 9 6 2 5 6 10 11 11 11 12 14 13
24 22 20 17 14 13 14 14 12 10 8 7 9 10 9 9 11 11 10 9 8 8 8 9 9 9 10 5 5 2 4 3 8 13 12 10 8 8 10 8 8 9 7 5 6 6 4 5 5 4 5 2 3 3 2 4 4 3 6 5 4 2 3 3 3 2 2 2 2 6 2 4 3 2 3 7 5 6 6 5 5 8 10 11 10 11 15 15
24 22 20 18 15 14 14 13 11 9 8 8 9 10 9 9 10 11 10 9 8 8 7 8 9 9 9 5 5 4 3 4 10 13 12 10 8 8 9 9 9 9 7 4 7 8 5 6 5 4 2 2 3 3 1 3 4 6 8 6 6 5 3 3 4 1 2 2 2 7 3 4 4 1 6 5 3 7 8 7 6 7 8 10 10 9 11 15
23 21 20 18 16 14 13 12 11 9 9 10 9 9 9 8 9 10 10 9 8 7 7 8 9 10 7 4 3 5 2 4 10 12 11 9 7 8 8 9 9 8 7 5 7 8 5 6 7 5 1 3 4 2 1 2 6 6 7 6 6 7 3 1 1 2 1 2 1 4 2 4 2 6 8 2 4 7 8 8 7 7 7 7 8 7 8 14
23 21 20 18 16 14 13 11 10 9 9 10 9 9 9 8 8 9 9 8 7 8 8 8 9 10 6 2 3 6 4 5 11 12 10 8 7 7 7 8 8 7 7 7 8 8 4 4 8 6 2 6 3 1 4 4 5 3 4 5 2 6 3 3 1 2 2 2 2 3 1 6 7 10 8 2 4 8 7 8 7 7 6 6 7 6 8 12
23 21 20 18 16 14 12 10 9 9 9 10 9 9 10 8 7 8 8 8 8 8 8 8 10 8 3 1 3 4 6 8 12 11 9 9 8 8 8 7 6 6 6 7 8 6 4 6 10 6 3 4 3 2 5 5 4 3 2 3 3 3 3 6 3 1 4 1 2 6 3 6 7 9 8 4 5 10 8 8 7 7 6 6 6 7 8 10
24 21 19 18 16 13 12 11 9 9 9 10 9 9 9 8 5 6 8 8 8 8 9 9 10 7 2 2 2 3 7 8 11 11 9 10 8 6 6 7 6 5 6 7 8 7 7 10 9 5 1 2 4 6 4 3 3 4 3 1 2 4 4 7 3 5 5 1 4 6 2 6 7 9 7 3 5 8 8 8 8 8 8 8 7 8 8 9
24 22 20 17 15 13 12 11 8 8 9 9 9 8 7 6 5 5 8 8 9 9 9 7 8 6 3 1 0 3 6 6 10 12 10 10 7 5 7 8 7 7 8 7 9 8 7 7 5 3 4 3 5 7 4 3 3 3 3 2 2 3 2 4 2 2 3 1 3 2 3 3 5 7 7 3 3 5 6 7 8 8 9 9 7 8 8 8
25 22 20 17 15 13 12 10 9 8 8 8 7 6 6 5 5 6 7 8 9 9 8 5 5 3 1 1 1 2 4 6 11 12 10 8 7 7 8 6 5 6 6 6 7 6 5 5 2 1 3 3 3 6 5 1 2 2 2 1 3 3 3 2 3 3 2 2 1 1 2 6 6 7 8 5 1 3 6 8 9 8 8 8 8 7 7 8
25 22 20 18 15 13 12 11 10 9 8 7 6 7 7 7 8 8 10 11 11 8 5 2 4 2 2 3 3 3 5 9 11 11 10 7 7 7 5 3 4 5 5 5 3 3 3 4 2 2 3 3 3 5 5 5 5 6 3 3 2 2 3 3 3 3 2 3 1 1 2 9 10 9 9 8 2 3 8 9 8 9 9 9 8 8 8 9
25 23 20 18 15 13 13 11 9 9 8 8 10 13 11 9 8 7 9 9 7 4 2 2 4 3 4 5 4 3 6 10 10 9 9 7 6 5 3 4 5 5 4 3 2 1 2 3 4 3 3 3 6 6 6 8 9 10 6 5 5 3 3 4 3 4 2 3 2 4 5 8 10 9 10 10 4 5 9 9 8 9 8 8 8 8 8 9
24 24 22 18 16 14 12 11 9 9 10 13 17 15 9 6 5 3 2 2 2 3 1 4 6 2 1 1 4 8 9 8 5 6 7 6 6 6 3 4 6 6 3 4 2 1 4 4 3 5 7 8 9 7 5 5 7 8 6 5 4 4 2 3 2 4 1 3 4 4 5 9 10 11 11 9 5 5 9 10 11 10 9 9 9 10 9 10
24 24 23 19 17 14 11 10 9 10 13 18 18 10 4 5 4 3 3 2 5 4 2 3 4 2 1 3 8 10 7 4 0 3 6 6 6 7 1 3 5 4 1 3 3 2 5 5 6 7 9 8 7 6 6 6 6 6 6 6 3 2 2 2 2 4 3 1 3 3 3 10 11 11 11 8 7 9 11 11 12 13 12 9 10 11 10 8
26 25 24 20 17 14 12 10 9 11 15 17 12 4 2 3 3 7 7 1 6 5 1 2 1 2 2 5 9 5 4 3 1 3 5 4 3 4 2 4 5 4 0 3 4 4 4 3 8 8 7 5 4 5 8 7 6 6 4 6 3 2 2 2 3 4 4 1 3 5 4 9 11 11 12 10 10 11 9 10 12 12 11 10 10 11 9 8
26 26 23 20 17 14 11 10 10 12 15 14 8 5 4 4 6 10 7 4 3 2 1 2 2 2 2 3 7 2 4 5 5 5 6 5 2 3 4 5 5 4 2 4 6 5 3 5 7 4 6 8 6 4 8 7 5 5 4 5 3 2 2 0 3 4 3 2 1 3 4 8 8 6 10 11 9 9 7 8 11 10 10 12 10 8 8 9
26 25 22 20 18 14 11 10 12 12 15 13 11 10 9 8 9 9 3 3 2 1 1 3 3 4 3 3 6 5 3 3 5 6 7 7 4 2 5 5 5 5 3 6 8 7 4 5 3 5 5 7 7 4 6 7 3 2 3 6 4 3 4 3 1 0 3 4 2 3 4 6 5 5 7 7 4 6 5 5 9 9 9 10 9 7 8 10
26 24 22 22 18 15 12 11 12 13 13 10 13 13 11 8 9 7 3 3 1 1 1 2 1 4 6 5 5 6 3 1 2 4 7 8 6 3 3 2 4 5 5 6 8 5 4 4 3 6 4 6 8 3 4 7 3 1 2 5 7 7 6 3 3 3 4 5 3 4 4 6 6 5 7 6 6 7 5 6 10 10 7 8 8 8 9 9
25 24 23 23 19 18 14 9 11 13 10 9 14 15 9 7 8 6 4 4 2 1 2 4 2 6 9 5 4 4 3 2 2 1 5 6 3 3 3 1 2 4 6 6 4 3 1 2 4 6 5 6 6 3 4 6 6 1 3 5 7 8 8 5 4 3 2 2 3 4 2 5 7 6 9 7 7 10 10 10 13 12 6 5 7 7 7 8
24 24 25 23 22 22 13 6 13 14 6 9 15 15 8 7 8 5 4 5 3 3 5 2 0 6 9 6 6 6 3 4 2 3 2 3 1 3 4 4 2 2 4 4 2 2 2 3 5 6 6 6 5 2 4 6 8 3 3 6 8 8 7 6 6 4 1 3 4 5 4 2 6 7 8 6 6 10 11 12 14 11 6 5 7 7 7 7
24 24 25 24 23 21 11 8 17 15 4 6 14 13 8 9 9 4 5 2 2 2 4 2 1 6 5 3 6 5 2 3 5 2 1 3 1 3 3 6 5 5 2 4 4 3 1 4 4 5 6 4 4 4 4 8 6 4 4 7 6 6 7 5 6 4 1 2 4 5 1 2 6 7 6 4 3 8 10 12 13 11 8 6 7 7 7 7
25 25 25 24 22 18 10 9 19 18 6 6 14 13 10 10 7 5 3 3 1 2 2 2 3 3 3 3 3 2 1 1 2 3 1 3 0 3 3 5 6 7 3 3 6 3 1 4 6 6 6 4 4 2 3 5 3 3 6 7 5 6 6 5 5 4 3 2 5 6 1 2 5 7 5 2 2 7 9 10 10 9 9 7 6 7 4 3
25 25 23 23 23 19 11 9 19 20 8 6 14 14 11 7 4 5 3 4 2 1 0 2 3 3 6 7 2 0 2 2 0 1 2 1 2 5 2 2 6 7 5 6 4 1 2 1 1 4 3 5 4 2 2 3 5 7 7 7 7 6 6 4 3 4 3 2 6 7 3 1 3 6 4 3 4 6 5 7 8 7 7 6 6 6 3 0
25 25 24 24 25 23 12 7 17 19 8 8 15 13 8 4 3 5 6 3 2 2 1 2 3 5 11 13 5 2 3 2 1 5 3 1 2 3 2 2 4 5 4 5 4 4 5 4 1 1 1 4 6 5 4 3 4 7 5 5 4 4 4 4 4 3 1 5 6 5 2 3 3 6 5 5 7 6 5 6 8 7 7 6 6 5 4 2
27 25 26 26 25 23 10 4 16 18 9 11 14 9 5 4 2 4 3 2 3 3 4 5 5 6 12 11 6 4 4 2 2 6 6 4 3 4 4 5 4 4 2 3 1 3 3 2 3 4 1 4 6 5 4 6 5 5 5 6 4 2 3 2 3 1 3 6 4 2 1 2 5 7 8 10 10 8 8 8 7 7 7 6 6 5 5 4
29 26 25 26 24 22 11 6 15 16 11 13 9 4 5 5 6 7 4 3 3 3 5 6 4 6 11 9 5 5 4 2 3 3 3 4 5 5 4 3 5 5 4 5 4 2 1 4 3 2 2 2 6 6 3 1 1 4 5 5 5 3 2 2 4 2 4 4 3 2 2 3 4 5 9 13 11 7 7 7 7 7 7 6 6 6 5 5
29 28 27 28 25 20 11 8 12 14 12 10 5 5 6 6 7 9 8 5 2 2 3 6 7 7 10 8 6 7 4 1 4 4 3 4 5 6 6 5 4 5 4 3 3 5 4 3 3 3 2 2 4 5 5 6 4 3 4 5 6 5 5 4 4 3 4 3 3 3 2 3 3 3 6 10 9 5 6 7 5 4 6 5 5 5 5 5
29 30 29 27 25 20 13 9 10 14 12 6 4 7 9 8 7 9 9 5 2 2 3 6 10 9 8 3 2 7 4 1 4 5 4 6 6 7 6 6 6 4 6 6 2 2 5 3 4 2 2 3 4 2 3 7 3 2 2 5 3 5 5 3 3 5 3 1 2 2 3 5 4 5 8 7 7 8 7 7 5 5 5 3 3 5 5 5
31 30 27 24 24 23 17 10 9 13 10 6 6 8 8 10 8 6 8 6 4 6 8 7 7 7 6 3 3 7 2 3 6 5 4 5 3 6 7 6 7 6 6 7 3 2 4 2 4 3 3 1 3 2 2 3 3 2 3 3 5 4 7 5 2 1 3 1 3 1 4 5 4 6 8 4 6 9 9 8 6 7 6 4 5 6 5 6
32 25 21 20 24 25 21 13 8 9 7 4 7 9 8 10 6 5 6 6 5 8 10 6 3 5 7 5 5 9 4 3 5 5 4 4 2 6 8 5 5 9 7 5 2 3 5 1 4 1 1 1 1 2 3 2 4 5 3 5 4 3 4 4 2 3 3 2 5 1 4 5 2 4 6 5 4 5 6 8 8 8 7 6 8 6 6 7
27 20 14 19 27 26 23 17 9 6 5 3 8 10 8 8 4 6 6 6 7 8 8 6 3 4 7 8 7 9 7 5 6 5 4 5 5 6 10 6 4 9 9 4 2 2 5 3 3 1 2 3 4 3 2 3 3 5 4 3 4 3 1 2 3 2 1 2 4 4 5 4 5 5 2 1 2 1 2 7 8 9 9 9 8 6 6 7
14 11 6 18 29 27 25 19 8 5 3 6 11 9 6 7 4 4 8 8 7 7 6 5 3 3 6 7 6 8 8 7 9 6 4 6 5 6 11 9 5 9 10 6 5 4 4 4 2 2 1 2 4 1 4 1 2 2 1 2 2 2 4 3 3 3 3 3 3 4 5 3 7 6 6 8 8 4 5 7 7 10 10 9 7 5 6 6
4 2 3 19 30 27 25 17 6 4 5 8 11 6 1 3 2 2 8 9 5 4 5 5 4 5 5 4 5 7 6 5 8 7 4 6 5 5 9 9 6 9 9 4 4 4 3 4 4 2 3 1 2 3 7 7 5 3 3 3 2 1 2 2 1 3 4 4 2 2 5 6 6 4 8 9 9 8 8 7 8 9 9 8 7 6 6 6
3 1 2 19 33 30 23 12 2 4 6 7 8 4 2 1 2 3 4 5 4 3 4 6 6 6 6 5 4 5 5 4 7 7 4 5 6 5 6 8 8 9 7 3 3 4 3 3 5 3 1 3 5 4 5 7 5 5 5 7 7 4 4 3 2 1 2 3 4 3 4 9 6 5 7 8 7 7 8 7 7 7 8 7 7 7 7 6
2 0 1 18 39 34 18 7 4 3 4 5 4 2 0 1 3 4 2 1 2 2 3 5 6 5 5 6 6 6 6 4 6 7 5 8 9 6 6 7 10 11 10 6 4 3 4 4 5 3 3 5 6 5 3 4 2 2 3 4 5 4 5 6 4 3 1 1 2 4 2 8 4 4 5 6 7 6 5 5 4 5 7 7 6 6 5 5
3 2 4 13 39 34 12 5 5 3 5 4 2 1 1 1 1 3 1 1 2 2 2 3 5 5 4 5 6 8 9 6 7 9 7 7 7 6 7 9 12 13 10 6 4 2 3 4 4 0 3 3 5 5 2 1 1 2 3 2 5 3 4 6 5 4 4 4 3 3 3 7 2 2 4 3 3 3 2 2 1 3 4 5 6 6 5 5
2 3 4 4 22 22 9 7 8 9 8 4 3 3 0 0 2 2 2 3 2 2 4 3 5 6 4 5 7 10 11 7 6 9 7 5 6 5 8 11 12 13 9 7 8 6 3 3 4 3 1 3 4 4 3 2 2 3 3 3 6 6 6 4 2 4 2 6 8 5 6 6 2 3 2 3 5 5 3 1 0 2 5 6 6 6 6 6
1 3 2 3 6 6 4 5 8 11 9 5 5 6 3 1 2 2 3 3 1 3 4 2 3 5 4 5 7 9 12 8 4 6 5 3 4 3 6 11 12 11 9 7 9 8 6 5 5 6 6 6 7 6 5 4 3 1 2 5 8 8 9 6 3 4 5 6 8 8 10 5 2 3 2 4 6 6 6 5 4 4 5 6 6 6 7 7
1 1 1 1 0 1 2 1 2 6 9 7 5 6 7 6 2 0 2 2 2 2 2 1 2 4 4 6 8 8 12 10 3 5 7 6 3 3 4 10 11 10 7 8 10 8 4 4 7 10 12 13 12 8 5 8 7 5 7 9 9 9 10 7 5 5 6 3 5 12 13 9 7 4 2 6 6 6 7 6 7 7 6 6 7 7 7 6
1 1 2 2 1 1 2 3 1 2 5 10 8 6 11 11 4 1 2 2 2 2 1 0 2 5 6 9 8 7 11 10 3 5 10 8 3 2 1 6 9 9 6 9 9 6 5 5 10 12 14 13 9 6 7 11 12 13 12 11 11 11 11 10 9 11 7 5 7 12 7 9 17 9 6 11 10 7 9 9 9 9 7 7 9 8 8 8
1 0 1 1 0 2 2 2 3 1 1 8 8 5 10 12 8 6 3 1 1 1 2 2 2 7 10 12 9 6 8 9 5 5 7 6 3 1 1 1 3 5 6 6 6 4 6 7 9 9 12 11 5 6 8 11 11 12 13 13 14 14 14 15 18 16 10 8 13 9 11 12 21 9 9 12 11 10 12 11 9 8 8 9 9 9 9 9
1 1 1 1 1 2 3 3 6 4 2 5 5 5 9 12 13 10 3 3 1 2 3 5 7 8 9 10 10 8 8 9 8 6 4 5 5 4 4 1 2 1 5 5 4 3 4 5 6 8 10 11 6 7 9 11 9 8 11 13 15 17 18 20 21 19 15 13 14 8 7 15 18 6 7 11 10 9 8 5 5 8 9 9 9 9 9 10
1 0 1 2 2 2 3 4 7 6 4 4 5 7 8 11 15 12 3 4 6 4 4 6 8 6 6 8 9 9 11 14 13 10 8 8 6 4 4 5 3 2 3 5 4 2 3 4 3 6 6 9 6 7 8 8 7 7 8 10 13 16 18 20 19 16 11 10 13 10 8 14 11 4 7 11 7 4 6 7 8 9 8 8 10 10 10 10
1 2 2 1 2 2 4 4 5 5 4 4 6 7 8 11 14 12 6 3 6 6 6 8 6 2 2 5 7 8 9 11 13 13 13 12 9 7 5 5 7 7 4 4 4 3 4 2 1 5 4 7 5 8 8 4 3 2 6 10 14 14 14 15 12 9 9 11 13 10 9 14 10 4 7 10 5 6 11 12 9 8 9 10 11 11 10 11
2 2 1 1 2 2 3 4 5 4 3 5 8 8 10 10 9 9 7 2 2 5 6 9 8 3 2 4 7 6 6 7 7 7 7 6 4 4 2 4 9 11 8 7 4 3 6 5 2 5 6 6 4 7 9 7 5 3 9 13 15 13 12 8 3 5 11 12 10 10 11 15 12 4 7 11 7 9 12 11 8 9 10 10 11 11 10 10
Wind_Direction
188 183 184 184 183 182 180 178 177 178 175 175 173 169 177 177 178 179 183 193 201 206 204 203 204 207 211 216 219 223 235 226 206 197 202 213 210 216 228 224 228 232 229 225 214 205 204 248 251 288 102 115 41 100 30 28 81 58 87 107 154 175 188 186 180 197 172 163 188 202 171 133 151 217 186 49 57 83 64 38 15 14 23 24 360 152 159 164
189 183 186 186 180 180 180 181 179 178 176 176 172 171 178 177 178 180 185 195 201 204 203 203 206 207 211 212 214 218 223 211 200 219 218 202 196 215 226 220 219 222 221 222 217 196 157 166 341 54 73 85 336 23 55 12 91 94 109 101 218 205 187 196 194 201 176 159 169 184 176 151 167 174 133 122 121 113 92 20 2 27 23 43 106 140 154 163
189 185 188 186 177 179 183 182 182 185 180 176 175 174 178 177 178 182 187 194 198 200 201 204 206 207 209 206 207 201 193 186 196 248 221 198 196 214 216 212 211 214 214 215 212 194 168 166 68 88 68 57 317 48 95 35 111 152 111 94 235 215 195 208 191 213 233 168 151 169 179 158 185 173 136 148 155 156 161 186 121 109 220 133 135 146 154 164
188 187 190 187 177 180 186 183 183 189 181 175 176 173 177 177 178 184 190 194 197 198 200 203 203 204 204 202 193 181 167 127 236 231 203 197 202 209 209 209 208 208 212 204 196 198 199 145 97 117 84 53 322 37 140 248 200 135 103 166 224 186 148 246 222 263 258 165 151 153 142 152 208 180 139 140 136 244 237 211 191 194 185 166 170 163 160 167
188 189 191 188 181 180 186 184 183 183 179 176 174 174 176 177 179 184 192 197 198 198 200 199 199 200 199 195 181 181 159 103 242 211 185 192 198 203 204 207 209 213 213 202 199 205 210 107 89 90 78 138 347 47 203 248 115 81 47 196 212 151 136 272 299 319 132 117 129 134 146 175 170 139 142 147 157 226 230 215 206 189 171 169 174 172 169 172
188 191 192 189 185 182 184 185 182 179 179 177 176 180 179 179 180 183 192 198 201 202 201 196 193 194 193 188 179 187 171 166 263 180 178 181 186 198 197 203 214 220 217 203 204 190 161 83 85 111 87 110 144 144 200 282 73 99 273 284 267 188 146 277 330 351 124 112 131 152 165 148 114 135 164 162 190 225 223 211 209 189 169 169 165 167 173 179
192 194 192 190 190 185 183 185 184 180 179 181 181 185 183 181 180 183 191 195 202 202 198 193 188 188 185 171 168 157 145 239 264 165 172 172 180 192 188 203 212 218 217 197 190 155 123 94 115 150 102 89 166 168 173 46 52 95 182 301 355 105 112 283 344 71 115 121 165 157 127 134 142 157 138 191 229 243 255 244 187 165 156 158 159 172 183 185
195 195 193 193 196 190 183 183 185 182 181 186 188 188 188 182 179 183 189 195 201 199 195 188 184 182 173 163 148 72 349 252 214 170 172 172 177 182 184 201 203 213 213 201 188 150 143 130 157 156 108 194 171 146 139 78 46 88 160 206 65 51 57 330 38 74 93 102 131 108 106 187 179 152 148 226 240 243 259 40 108 136 141 156 168 182 189 191
196 196 195 194 197 194 187 183 184 186 184 190 196 195 190 183 180 183 189 194 197 196 192 180 181 175 170 162 114 94 234 225 188 178 177 175 175 179 188 195 195 202 199 208 199 151 165 168 187 183 155 203 143 130 151 113 186 167 138 145 110 54 350 16 45 51 73 67 81 111 79 302 236 229 246 237 227 211 130 81 111 134 146 173 179 186 190 196
196 198 198 197 196 196 196 189 186 189 189 195 201 199 194 186 181 182 187 192 195 194 188 177 175 168 170 153 98 149 233 204 187 183 179 178 174 181 192 196 192 193 190 204 192 160 166 182 189 162 142 145 113 117 145 149 186 145 108 96 82 60 344 22 75 28 43 36 61 131 127 316 327 337 255 257 220 160 122 123 154 149 166 186 186 194 194 199
197 198 199 198 196 197 201 202 200 199 204 209 206 202 203 194 180 181 187 190 192 190 185 179 168 165 169 138 118 191 232 188 190 182 181 183 176 186 195 200 190 189 198 192 189 186 178 183 160 115 140 156 114 80 59 142 122 120 114 81 18 11 3 29 103 360 18 61 80 121 112 320 358 337 230 252 183 157 153 165 184 178 188 194 193 201 197 207
196 197 200 198 196 199 204 211 214 211 221 227 219 210 209 200 183 181 185 185 187 185 183 173 163 162 152 107 159 206 211 181 187 181 183 184 181 193 195 199 195 196 206 191 195 190 168 174 132 105 212 146 117 95 148 106 97 118 106 87 355 6 19 337 109 301 44 100 287 107 53 305 269 229 236 249 153 169 167 176 196 200 205 203 202 207 205 217
196 196 198 197 196 201 206 215 222 220 225 232 230 222 218 209 191 181 180 181 180 179 177 165 163 163 139 103 216 217 228 195 184 180 180 179 177 188 189 191 195 205 215 208 197 175 155 181 137 121 132 109 122 178 124 74 81 112 70 91 50 19 347 274 345 327 109 112 318 101 185 277 251 238 252 314 145 155 172 196 207 212 219 216 212 215 218 223
196 196 196 197 198 201 208 216 223 226 228 230 232 229 222 214 198 180 170 174 175 172 170 160 160 159 138 219 228 223 221 192 182 180 174 174 164 167 178 174 182 202 209 201 187 162 144 152 124 108 94 102 138 120 77 43 48 92 71 68 85 113 260 291 312 133 134 129 43 100 173 262 265 261 275 285 167 157 183 210 213 219 228 225 221 220 226 227
196 195 195 197 198 201 208 213 221 228 228 225 227 231 223 212 201 177 166 168 164 163 162 156 157 145 94 278 259 199 194 182 179 179 172 172 162 160 169 157 158 157 155 165 158 142 136 131 107 91 91 37 94 97 63 34 25 52 106 311 356 154 251 304 290 161 157 255 49 98 193 264 270 272 289 305 159 166 192 212 219 222 227 227 226 222 228 234
196 194 195 195 196 201 206 210 218 223 222 219 220 228 218 200 184 161 164 161 152 154 148 147 163 144 100 243 206 157 179 181 179 177 172 172 169 160 149 144 142 134 135 134 129 127 115 100 76 104 122 63 91 105 72 46 360 5 101 195 243 157 243 307 293 217 173 183 19 82 198 259 284 280 304 353 137 179 209 228 232 227 231 228 225 225 226 236
195 193 193 192 193 200 203 206 211 215 217 210 205 210 198 175 154 144 149 144 138 139 124 128 168 150 89 137 120 182 191 183 179 176 172 172 172 156 141 131 127 127 121 107 114 110 65 50 55 134 80 74 109 104 90 81 256 284 60 167 223 172 175 258 272 284 69 113 282 22 208 245 274 288 299 320 98 180 225 241 242 236 240 237 231 232 228 230
194 192 192 190 192 197 200 203 206 212 211 193 175 167 155 134 124 129 134 128 118 111 92 83 137 152 247 205 185 198 180 175 176 174 171 170 167 160 146 117 115 110 86 69 76 69 34 25 66 94 51 78 142 110 131 201 193 186 183 168 207 182 181 225 240 250 60 82 221 97 256 257 268 281 285 288 275 209 239 243 245 246 244 246 243 236 231 230
194 193 190 189 191 194 198 200 202 208 201 172 151 138 123 104 100 112 128 127 115 112 150 193 154 163 221 205 187 140 146 162 165 169 171 164 162 161 123 98 97 92 97 80 33 54 84 54 67 118 137 166 182 158 170 201 174 168 174 151 156 164 214 244 252 261 123 112 232 212 229 263 269 273 276 278 259 221 250 256 253 254 249 250 249 243 236 229
194 193 190 187 190 192 195 199 205 207 191 162 146 131 113 110 104 103 137 151 189 168 177 206 181 168 282 185 140 122 126 138 150 172 174 168 161 149 90 55 49 54 105 143 150 114 90 108 163 184 186 189 191 178 156 159 147 140 126 111 139 153 201 252 263 299 74 130 253 238 238 266 269 269 267 273 281 247 249 254 254 252 249 245 243 244 238 231
194 194 190 188 189 191 192 199 206 195 177 164 153 137 146 167 141 169 181 298 249 220 300 256 178 130 3 129 140 136 121 97 49 191 177 179 156 147 123 34 71 69 132 158 140 38 68 132 207 215 199 188 181 166 120 100 99 102 123 122 97 135 186 236 235 305 358 120 273 334 298 264 262 267 268 270 276 256 237 236 246 246 245 245 243 245 239 238
193 193 189 188 188 186 188 193 191 178 171 170 168 167 208 179 136 158 148 110 247 222 253 283 119 53 13 140 158 144 82 99 193 246 199 179 136 158 156 67 117 150 196 117 100 45 60 184 233 228 190 139 98 122 108 92 90 84 110 126 117 153 170 304 303 318 8 93 275 344 335 272 262 261 265 258 249 252 239 226 239 244 244 245 242 244 243 245
192 191 188 189 184 177 181 181 173 175 176 178 190 193 167 141 140 151 135 105 213 203 125 195 161 124 47 148 184 160 87 142 174 226 209 164 145 174 134 102 131 141 122 135 132 124 133 235 239 203 144 121 89 86 100 87 76 88 110 128 158 217 137 172 288 314 7 59 261 334 316 281 281 280 271 260 249 264 264 242 243 240 239 243 242 242 238 239
190 188 188 186 177 172 180 171 166 183 186 191 212 189 144 127 148 155 117 83 161 192 191 204 172 162 155 157 183 162 125 155 165 195 192 160 151 150 145 141 129 130 160 159 142 146 193 247 203 98 91 121 115 91 110 109 64 48 125 138 161 191 168 172 208 325 1 7 22 23 336 293 313 331 289 284 301 287 285 287 270 249 238 250 261 257 238 235
189 187 185 180 171 168 168 159 169 188 188 202 215 183 137 123 146 149 95 71 175 313 314 216 187 188 180 145 166 171 141 167 196 196 183 167 154 134 163 156 125 163 181 143 130 147 220 262 139 108 69 91 114 126 152 137 110 357 204 177 172 162 150 122 69 71 36 352 335 26 2 291 315 324 277 288 329 301 302 321 289 267 247 246 258 257 245 244
188 185 181 176 168 163 158 161 185 184 181 213 203 176 152 133 138 145 99 58 275 264 153 179 162 182 180 153 160 146 106 221 263 122 155 169 167 117 147 158 91 173 171 138 134 158 216 348 81 124 112 87 96 128 183 137 112 167 229 171 149 124 116 115 99 84 84 253 295 44 114 260 309 303 267 284 315 299 300 302 284 276 268 242 244 249 246 247
187 184 179 173 168 166 159 161 177 168 173 221 194 174 173 145 138 147 80 45 281 188 145 182 359 168 173 169 159 132 158 214 106 76 129 153 209 53 127 179 126 150 163 125 134 222 176 78 67 90 92 93 110 152 190 132 115 199 209 127 126 114 119 134 110 96 202 236 324 17 121 228 295 270 265 303 319 299 293 284 276 280 288 263 249 251 245 238
186 182 176 172 171 177 180 157 165 170 190 200 177 171 163 142 143 127 85 105 246 132 143 210 141 149 150 148 140 121 208 196 122 190 314 94 184 39 110 190 159 136 128 123 174 251 144 147 160 123 94 121 176 209 182 118 101 230 183 125 127 122 125 122 98 89 26 31 319 316 117 199 271 273 295 340 316 287 278 269 271 284 292 278 263 258 249 245
182 178 174 173 176 187 200 180 173 179 184 156 165 167 147 139 140 96 90 188 190 70 145 147 128 143 122 126 124 76 37 54 124 218 2 81 201 43 131 190 140 114 42 91 164 223 83 183 188 139 127 177 197 237 187 128 101 182 141 100 75 75 81 78 89 96 44 29 256 258 202 202 266 285 307 353 255 258 265 268 270 277 283 279 268 262 259 270
180 179 176 174 181 185 179 189 187 180 171 153 163 161 143 134 126 118 185 218 146 96 144 141 175 160 136 145 162 20 111 50 18 98 45 96 11 28 103 139 99 97 31 39 94 238 312 271 169 113 140 179 151 110 159 156 133 128 104 71 54 36 37 42 57 84 64 303 254 244 223 180 275 280 259 214 219 225 251 287 288 288 298 292 268 257 258 265
178 179 181 179 185 183 166 187 193 179 171 166 158 152 135 96 89 149 195 214 123 109 84 157 191 149 156 165 173 167 110 44 168 144 139 173 57 52 117 111 75 74 52 45 36 340 358 28 356 319 141 126 99 74 38 16 82 101 88 84 78 359 12 24 1 42 119 258 260 256 226 156 220 260 254 245 250 238 232 262 278 291 294 280 267 263 264 276
179 179 183 183 185 187 180 179 181 174 171 166 155 142 117 102 172 198 199 167 160 186 173 183 204 179 170 164 149 150 128 88 182 157 153 155 156 179 173 170 155 104 136 168 97 4 15 17 308 321 277 139 104 83 33 2 29 80 95 98 96 351 12 358 316 360 218 248 264 284 271 202 230 245 255 264 263 245 223 225 247 272 269 258 262 267 268 281
181 179 182 184 186 189 186 158 170 173 166 164 154 90 88 139 197 211 202 179 191 188 160 163 174 163 159 152 154 162 133 148 186 161 152 147 162 209 239 206 156 124 171 178 135 123 343 314 313 358 294 192 136 129 125 265 140 131 139 128 128 125 95 256 266 277 256 258 278 294 275 260 272 256 244 250 249 232 225 235 245 253 253 257 268 270 274 276
181 179 180 183 186 187 173 145 169 176 163 161 154 102 130 175 201 202 203 213 207 116 123 144 124 129 160 166 179 170 131 166 178 138 126 135 153 203 229 226 171 105 111 143 154 160 165 275 242 171 225 208 171 171 154 148 149 170 162 132 144 156 155 202 216 206 239 272 294 294 268 203 217 273 249 246 265 278 261 264 274 261 254 264 279 271 264 262
179 180 180 182 190 190 171 143 162 174 164 149 150 153 171 194 203 199 197 203 198 129 117 141 129 139 175 171 195 187 151 160 179 139 150 170 176 194 199 204 193 134 126 159 201 159 157 236 259 255 273 175 178 221 122 110 111 235 130 106 157 186 144 143 185 175 176 293 286 252 240 214 208 279 277 261 286 295 284 302 332 301 282 300 277 253 242 248
176 179 180 183 194 193 180 160 154 167 161 133 158 178 194 202 194 186 180 170 169 144 125 133 136 149 174 146 199 210 167 122 163 157 184 193 197 198 194 201 191 173 160 159 167 167 157 250 307 332 342 100 168 218 114 116 168 170 126 167 212 175 114 115 214 74 89 232 266 221 253 291 330 294 288 301 297 284 280 300 307 283 287 293 256 245 240 241
172 175 180 187 196 192 185 178 155 152 141 126 182 191 203 212 184 139 162 156 142 132 127 148 169 151 166 168 188 200 186 126 159 175 190 189 231 202 194 222 195 183 188 159 155 193 156 166 316 17 112 297 255 138 52 43 128 125 166 210 190 122 91 106 165 1 44 238 274 274 246 285 318 283 312 351 323 292 260 259 273 282 284 268 251 236 232 237
171 172 181 194 196 189 185 185 164 137 108 126 204 209 208 217 180 127 149 136 126 132 137 167 176 141 172 181 184 185 177 165 176 186 174 184 241 203 177 204 207 187 196 168 149 195 135 131 309 11 168 296 349 86 73 3 87 131 185 184 120 136 178 104 150 186 137 234 280 297 281 263 214 231 286 215 196 108 223 244 258 265 258 254 255 242 239 250
168 174 189 196 194 187 182 179 152 114 121 171 205 220 208 204 201 154 153 139 132 142 154 181 172 137 177 176 168 177 183 181 175 178 180 188 235 218 177 185 193 185 191 162 150 186 137 137 230 303 257 307 1 102 184 218 49 62 98 112 87 135 166 161 160 160 164 205 260 308 315 269 221 211 183 202 219 208 234 252 243 242 246 252 264 254 238 240
138 174 205 189 187 182 172 162 125 132 184 197 203 219 217 186 222 201 162 153 149 148 167 192 173 153 171 168 162 174 183 176 167 181 210 191 212 238 199 186 177 175 178 155 148 169 138 139 171 297 334 215 207 207 187 176 158 141 153 175 187 82 112 155 141 121 136 157 188 283 295 267 248 209 179 204 233 229 232 243 238 244 254 257 262 259 247 245
85 30 216 181 177 170 154 142 136 182 195 218 214 227 330 158 188 229 195 164 158 147 149 166 166 158 155 152 172 178 160 152 171 186 219 205 204 229 210 181 158 150 151 167 195 170 151 141 146 157 254 198 227 250 196 189 185 168 181 195 183 148 125 143 231 257 115 134 174 175 274 270 241 188 189 200 217 231 231 225 232 249 256 259 261 254 250 256
122 110 248 175 170 163 147 153 194 184 204 224 211 189 164 121 172 207 236 89 142 138 112 146 163 161 157 163 175 171 156 158 182 187 210 215 208 215 207 166 145 153 160 172 198 165 127 106 114 163 222 212 241 270 215 206 229 180 209 203 169 144 133 145 194 236 159 176 170 122 275 276 233 179 216 208 207 236 233 208 226 252 251 264 275 269 263 258
191 226 316 179 171 164 149 170 182 206 236 223 168 153 113 80 168 204 226 192 169 153 133 170 173 172 183 174 162 166 169 176 192 196 208 219 217 219 199 164 149 161 169 165 174 159 116 107 106 219 304 308 299 314 348 48 66 215 238 170 150 171 147 148 177 177 162 197 156 107 256 267 290 281 272 252 235 265 253 201 269 316 295 292 286 289 294 278
180 203 325 217 182 175 167 174 184 207 215 186 180 218 272 72 180 170 187 200 193 150 157 183 186 186 190 159 153 173 182 182 199 205 204 210 225 220 184 173 165 166 179 188 178 176 191 159 119 116 25 351 332 321 303 276 197 206 226 172 174 170 124 111 116 109 190 215 166 156 238 245 301 309 309 7 354 341 326 271 343 330 305 298 291 296 299 288
145 184 285 279 212 205 202 186 189 201 194 162 191 209 205 225 212 163 165 174 167 159 168 208 202 175 165 155 157 176 185 182 183 201 206 220 249 244 180 185 185 181 194 193 166 165 185 178 148 153 172 192 204 214 221 207 171 190 210 189 190 172 153 157 118 123 230 221 159 186 232 234 323 325 342 6 352 329 313 312 316 287 266 276 286 286 284 280
160 174 229 254 7 349 285 322 161 191 185 172 192 202 194 210 255 15 167 174 178 161 162 278 188 155 154 161 161 177 195 200 165 164 195 202 220 262 191 183 195 203 189 153 151 149 139 182 193 189 196 203 203 203 154 125 140 203 206 186 186 186 177 162 122 172 206 156 169 221 232 242 258 247 265 297 289 283 293 302 299 282 270 286 286 270 269 271
220 176 175 175 69 158 241 319 360 166 177 182 187 183 192 204 208 156 220 217 182 144 149 316 151 170 177 166 167 187 198 202 178 160 192 199 207 292 203 166 197 207 167 144 162 138 105 203 211 201 215 220 203 190 157 144 170 200 195 181 183 187 180 173 194 208 170 122 229 228 193 241 255 226 205 258 262 258 266 260 257 260 263 273 273 272 279 279
240 342 160 158 52 173 197 234 189 105 144 192 192 183 194 202 194 189 215 222 141 152 182 207 209 202 189 169 170 184 187 196 206 188 187 181 167 166 58 92 218 198 147 151 182 135 128 208 213 195 224 237 188 161 175 171 185 198 190 183 183 183 183 192 213 215 173 175 237 216 145 216 252 231 187 233 244 235 244 247 243 245 249 254 260 269 274 273
176 323 297 287 247 183 173 153 149 152 206 200 202 206 201 201 201 204 177 107 190 246 177 199 222 213 197 178 172 174 176 187 207 218 194 165 164 152 125 137 267 159 126 146 186 167 158 211 206 177 216 241 202 167 187 187 186 198 196 187 183 186 192 200 215 218 202 209 239 234 182 232 253 234 187 226 235 232 248 258 233 230 236 242 246 251 253 254
155 7 314 305 282 183 157 133 141 169 201 193 209 216 206 204 206 209 180 144 196 212 172 205 221 202 191 191 185 191 191 185 192 201 178 160 179 183 166 184 182 120 122 149 175 213 201 216 181 141 198 246 216 178 199 195 180 196 207 199 194 195 199 209 218 217 207 224 247 256 259 260 258 202 215 242 226 215 259 253 233 233 232 234 240 244 247 248
271 3 53 338 295 194 170 155 144 165 188 193 207 207 207 215 209 203 211 200 195 192 178 191 199 137 112 183 192 215 212 192 193 194 174 169 182 182 185 193 164 147 156 169 165 173 180 201 71 109 175 246 220 180 185 149 102 224 238 219 206 201 206 214 216 200 189 207 233 244 254 259 254 193 232 252 192 186 246 245 235 242 236 231 240 243 242 244
250 339 58 82 308 248 189 162 149 163 190 201 206 204 211 222 206 191 210 231 197 208 193 178 173 128 95 183 200 222 203 169 175 180 161 152 139 118 122 175 161 157 163 163 159 163 159 158 130 141 182 252 250 169 152 112 90 248 245 222 204 203 214 212 173 201 205 197 206 221 227 246 254 207 226 255 223 210 245 245 226 236 237 232 238 240 242 246